Time,TemperatureF,DewpointF,PressureIn,WindDirection,WindDirectionDegrees,WindSpeedMPH,WindSpeedGustMPH,Humidity,HourlyPrecipIn,Conditions,Clouds,dailyrainin,SoftwareType,DateUTC
2013-03-26 00:01:00,31.7,29.6,29.77,NNE,28,0.0,0.0,92,0.00,,BKN048,0.04,VWS V13.01,2013-03-26 04:01:00,
2013-03-26 00:02:00,31.7,29.6,29.77,NNE,28,0.0,0.0,92,0.00,,OVC065,0.00,VWS V13.01,2013-03-26 04:02:00,
2013-03-26 00:07:00,31.7,29.6,29.77,NNE,28,0.0,0.0,92,0.00,,OVC065,0.00,VWS V13.01,2013-03-26 04:07:00,
2013-03-26 00:12:00,31.7,29.6,29.77,NNE,28,0.0,0.0,92,0.00,,OVC065,0.00,VWS V13.01,2013-03-26 04:12:00,
2013-03-26 00:17:00,31.6,29.5,29.77,NNE,28,0.0,0.0,92,0.00,,OVC065,0.00,VWS V13.01,2013-03-26 04:17:00,
2013-03-26 00:22:00,31.6,29.5,29.77,NNE,28,0.0,0.0,92,0.00,,OVC065,0.00,VWS V13.01,2013-03-26 04:22:00,
2013-03-26 00:27:00,31.7,29.6,29.77,NNE,28,0.0,0.0,92,0.00,,OVC065,0.00,VWS V13.01,2013-03-26 04:27:00,
2013-03-26 00:32:00,31.8,29.8,29.77,NNE,28,0.0,0.0,92,0.00,,OVC065,0.00,VWS V13.01,2013-03-26 04:32:00,
2013-03-26 00:37:00,31.9,30.1,29.78,NNE,28,0.0,0.0,93,0.00,,OVC065,0.00,VWS V13.01,2013-03-26 04:37:00,
2013-03-26 00:42:00,31.9,29.8,29.78,NNE,28,0.0,0.0,92,0.00,,OVC065,0.00,VWS V13.01,2013-03-26 04:42:00,
2013-03-26 00:47:00,32.0,30.2,29.78,NNE,28,0.0,0.0,93,0.00,,OVC065,0.00,VWS V13.01,2013-03-26 04:47:00,
2013-03-26 00:52:00,32.1,30.3,29.78,NNE,28,0.0,0.0,93,0.00,,OVC065,0.00,VWS V13.01,2013-03-26 04:52:00,
2013-03-26 00:57:00,32.1,30.3,29.78,NNE,28,0.0,0.0,93,0.00,,OVC065,0.00,VWS V13.01,2013-03-26 04:57:00,
2013-03-26 01:02:00,32.2,30.4,29.78,NNE,28,0.0,0.0,93,0.00,,OVC043,0.00,VWS V13.01,2013-03-26 05:02:00,
2013-03-26 01:07:00,32.3,30.5,29.78,NNE,28,0.0,0.0,93,0.00,,OVC043,0.00,VWS V13.01,2013-03-26 05:07:00,
2013-03-26 01:12:00,32.3,30.5,29.78,NNE,28,0.0,0.0,93,0.00,,OVC043,0.00,VWS V13.01,2013-03-26 05:12:00,
2013-03-26 01:18:00,32.2,30.4,29.78,NNE,28,0.0,0.0,93,0.00,,OVC043,0.00,VWS V13.01,2013-03-26 05:18:00,
2013-03-26 01:22:00,32.3,30.5,29.78,NNE,28,0.0,0.0,93,0.00,,OVC043,0.00,VWS V13.01,2013-03-26 05:22:00,
2013-03-26 01:28:00,32.4,30.6,29.78,NNE,28,0.0,0.0,93,0.00,,OVC043,0.00,VWS V13.01,2013-03-26 05:28:00,
2013-03-26 01:33:00,32.4,30.3,29.78,NNE,28,0.0,0.0,92,0.00,,OVC043,0.00,VWS V13.01,2013-03-26 05:33:00,
2013-03-26 01:38:00,32.4,30.6,29.78,NNE,28,0.0,0.0,93,0.00,,OVC043,0.00,VWS V13.01,2013-03-26 05:38:00,
2013-03-26 01:43:00,32.4,30.3,29.78,NNE,28,0.0,0.0,92,0.00,,OVC043,0.00,VWS V13.01,2013-03-26 05:43:00,
2013-03-26 01:48:00,32.4,30.3,29.79,NNE,28,0.0,0.0,92,0.00,,OVC043,0.00,VWS V13.01,2013-03-26 05:48:00,
2013-03-26 01:53:00,32.4,30.3,29.79,NNE,28,0.0,0.0,92,0.00,,OVC043,0.00,VWS V13.01,2013-03-26 05:53:00,
2013-03-26 01:59:00,32.4,30.3,29.79,NNE,28,0.0,0.0,92,0.00,,OVC043,0.00,VWS V13.01,2013-03-26 05:59:00,
2013-03-26 02:04:00,32.4,30.3,29.79,NNE,28,0.0,0.0,92,0.00,,OVC065,0.00,VWS V13.01,2013-03-26 06:04:00,
2013-03-26 02:09:00,32.4,30.3,29.79,NNE,28,0.0,0.0,92,0.00,,OVC065,0.00,VWS V13.01,2013-03-26 06:09:00,
2013-03-26 02:14:00,32.5,30.4,29.79,NNE,28,0.0,1.0,92,0.00,,OVC065,0.00,VWS V13.01,2013-03-26 06:14:00,
2013-03-26 02:19:00,32.5,30.4,29.79,NNE,28,0.0,1.0,92,0.00,,OVC065,0.00,VWS V13.01,2013-03-26 06:19:00,
2013-03-26 02:24:00,32.5,30.4,29.79,NNE,28,0.0,1.0,92,0.00,,OVC065,0.00,VWS V13.01,2013-03-26 06:24:00,
2013-03-26 02:29:00,32.5,30.4,29.79,NNE,28,0.0,1.0,92,0.00,,OVC065,0.00,VWS V13.01,2013-03-26 06:29:00,
2013-03-26 02:34:00,32.4,30.3,29.79,NNE,28,0.0,0.0,92,0.00,,OVC065,0.00,VWS V13.01,2013-03-26 06:34:00,
2013-03-26 02:39:00,32.3,30.2,29.79,NNE,28,0.0,0.0,92,0.00,,OVC065,0.00,VWS V13.01,2013-03-26 06:39:00,
2013-03-26 02:44:00,32.3,30.2,29.79,NNE,28,0.0,0.0,92,0.00,,OVC065,0.00,VWS V13.01,2013-03-26 06:44:00,
2013-03-26 02:49:00,32.2,30.1,29.79,NNE,28,0.0,0.0,92,0.00,,OVC065,0.00,VWS V13.01,2013-03-26 06:49:00,
2013-03-26 02:54:00,32.2,30.1,29.79,NNE,28,0.0,0.0,92,0.00,,OVC065,0.00,VWS V13.01,2013-03-26 06:54:00,
2013-03-26 02:59:00,32.2,30.1,29.79,NNE,28,0.0,0.0,92,0.00,,OVC065,0.00,VWS V13.01,2013-03-26 06:59:00,
2013-03-26 03:04:00,32.2,30.1,29.79,NNE,28,0.0,0.0,92,0.00,,OVC070,0.00,VWS V13.01,2013-03-26 07:04:00,
2013-03-26 03:09:00,32.2,30.1,29.80,NNE,28,0.0,0.0,92,0.00,,OVC070,0.00,VWS V13.01,2013-03-26 07:09:00,
2013-03-26 03:14:00,32.2,30.1,29.80,NNE,28,0.0,0.0,92,0.00,,OVC070,0.00,VWS V13.01,2013-03-26 07:14:00,
2013-03-26 03:19:00,32.2,30.1,29.80,NNE,28,0.0,0.0,92,0.00,,OVC070,0.00,VWS V13.01,2013-03-26 07:19:00,
2013-03-26 03:24:00,32.3,30.2,29.80,NNE,28,0.0,0.0,92,0.00,,OVC070,0.00,VWS V13.01,2013-03-26 07:24:00,
2013-03-26 03:29:00,32.4,30.3,29.80,NNE,28,0.0,2.0,92,0.00,,OVC070,0.00,VWS V13.01,2013-03-26 07:29:00,
2013-03-26 03:34:00,32.5,30.2,29.80,NNE,28,0.0,1.0,91,0.00,,OVC070,0.00,VWS V13.01,2013-03-26 07:34:00,
2013-03-26 03:39:00,32.5,30.2,29.79,NNE,28,0.0,1.0,91,0.00,,OVC070,0.00,VWS V13.01,2013-03-26 07:39:00,
2013-03-26 03:44:00,32.6,30.3,29.79,NNE,28,0.0,1.0,91,0.00,,OVC070,0.00,VWS V13.01,2013-03-26 07:44:00,
2013-03-26 03:49:00,32.6,30.3,29.79,NNE,28,0.0,1.0,91,0.00,,OVC070,0.00,VWS V13.01,2013-03-26 07:49:00,
2013-03-26 03:54:00,32.6,30.3,29.79,NNE,28,1.0,1.0,91,0.00,,OVC070,0.00,VWS V13.01,2013-03-26 07:54:00,
2013-03-26 03:59:00,32.6,30.3,29.79,NNE,28,0.0,1.0,91,0.00,,OVC070,0.00,VWS V13.01,2013-03-26 07:59:00,
2013-03-26 04:04:00,32.6,30.3,29.79,NNE,28,0.0,1.0,91,0.00,,OVC065,0.00,VWS V13.01,2013-03-26 08:04:00,
2013-03-26 04:09:00,32.7,30.1,29.79,NNE,28,0.0,2.0,90,0.00,,OVC065,0.00,VWS V13.01,2013-03-26 08:09:00,
2013-03-26 04:14:00,32.7,30.1,29.79,NNE,28,1.0,2.0,90,0.00,,OVC065,0.00,VWS V13.01,2013-03-26 08:14:00,
2013-03-26 04:19:00,32.7,30.1,29.80,NNE,28,0.0,2.0,90,0.00,,OVC065,0.00,VWS V13.01,2013-03-26 08:19:00,
2013-03-26 04:24:00,32.7,30.1,29.80,NNE,28,0.0,2.0,90,0.00,,OVC065,0.00,VWS V13.01,2013-03-26 08:24:00,
2013-03-26 04:29:00,32.7,30.1,29.80,NNE,28,0.0,2.0,90,0.00,,OVC065,0.00,VWS V13.01,2013-03-26 08:29:00,
2013-03-26 04:34:00,32.7,30.1,29.80,NNE,28,0.0,0.0,90,0.00,,OVC065,0.00,VWS V13.01,2013-03-26 08:34:00,
2013-03-26 04:39:00,32.7,30.1,29.80,NNE,28,0.0,0.0,90,0.00,,OVC065,0.00,VWS V13.01,2013-03-26 08:39:00,
2013-03-26 04:44:00,32.6,30.0,29.80,NNE,28,1.0,1.0,90,0.00,,OVC065,0.00,VWS V13.01,2013-03-26 08:44:00,
2013-03-26 04:49:00,32.7,30.1,29.80,NNE,28,0.0,2.0,90,0.00,,OVC065,0.00,VWS V13.01,2013-03-26 08:49:00,
2013-03-26 04:54:00,32.8,30.2,29.80,SSW,196,0.0,3.0,90,0.00,,OVC065,0.00,VWS V13.01,2013-03-26 08:54:00,
2013-03-26 04:59:00,32.9,30.0,29.80,SSW,196,0.0,0.0,89,0.00,,OVC065,0.00,VWS V13.01,2013-03-26 08:59:00,
2013-03-26 05:04:00,33.0,30.1,29.80,SSW,196,0.0,3.0,89,0.00,,OVC070,0.00,VWS V13.01,2013-03-26 09:04:00,
2013-03-26 05:09:00,33.0,30.1,29.81,SSW,196,0.0,3.0,89,0.00,,OVC070,0.00,VWS V13.01,2013-03-26 09:09:00,
2013-03-26 05:14:00,33.0,30.1,29.81,SSW,196,0.0,3.0,89,0.00,,OVC070,0.00,VWS V13.01,2013-03-26 09:14:00,
2013-03-26 05:19:00,33.0,30.1,29.81,SSW,196,0.0,3.0,89,0.00,,OVC070,0.00,VWS V13.01,2013-03-26 09:19:00,
2013-03-26 05:25:00,33.0,30.1,29.81,SSW,196,0.0,3.0,89,0.00,,OVC070,0.00,VWS V13.01,2013-03-26 09:25:00,
2013-03-26 05:30:00,33.0,30.1,29.81,SSW,196,0.0,1.0,89,0.00,,OVC070,0.00,VWS V13.01,2013-03-26 09:30:00,
2013-03-26 05:35:00,33.1,30.2,29.81,SSW,196,0.0,1.0,89,0.00,,OVC070,0.00,VWS V13.01,2013-03-26 09:35:00,
2013-03-26 05:40:00,33.2,30.3,29.81,SSW,196,0.0,2.0,89,0.00,,OVC070,0.00,VWS V13.01,2013-03-26 09:40:00,
2013-03-26 05:45:00,33.2,30.3,29.81,SSW,196,0.0,2.0,89,0.00,,OVC070,0.00,VWS V13.01,2013-03-26 09:45:00,
2013-03-26 05:50:00,33.2,30.3,29.81,SSW,196,0.0,2.0,89,0.00,,OVC070,0.00,VWS V13.01,2013-03-26 09:50:00,
2013-03-26 05:55:00,33.1,30.2,29.81,SSW,196,0.0,2.0,89,0.00,,OVC070,0.00,VWS V13.01,2013-03-26 09:55:00,
2013-03-26 06:00:00,33.1,30.2,29.82,SSW,196,0.0,0.0,89,0.00,,OVC070,0.00,VWS V13.01,2013-03-26 10:00:00,
2013-03-26 06:05:00,33.1,30.2,29.82,SSW,196,0.0,2.0,89,0.00,,OVC070,0.00,VWS V13.01,2013-03-26 10:05:00,
2013-03-26 06:10:00,33.2,30.3,29.82,SSW,196,0.0,3.0,89,0.00,,OVC070,0.00,VWS V13.01,2013-03-26 10:10:00,
2013-03-26 06:15:00,33.2,30.3,29.82,SSW,196,0.0,3.0,89,0.00,,OVC070,0.00,VWS V13.01,2013-03-26 10:15:00,
2013-03-26 06:20:00,33.2,30.3,29.82,SSW,196,0.0,3.0,89,0.00,,OVC070,0.00,VWS V13.01,2013-03-26 10:20:00,
2013-03-26 06:25:00,33.2,30.3,29.82,SSW,196,1.0,3.0,89,0.00,,OVC070,0.00,VWS V13.01,2013-03-26 10:25:00,
2013-03-26 06:30:00,33.2,30.3,29.82,SSW,196,0.0,1.0,89,0.00,,OVC070,0.00,VWS V13.01,2013-03-26 10:30:00,
2013-03-26 06:35:00,33.2,30.3,29.82,SSW,196,0.0,2.0,89,0.00,,OVC070,0.00,VWS V13.01,2013-03-26 10:35:00,
2013-03-26 06:40:00,33.2,30.3,29.83,SSW,196,0.0,2.0,89,0.00,,OVC070,0.00,VWS V13.01,2013-03-26 10:40:00,
2013-03-26 06:45:00,33.2,30.3,29.83,SSW,196,0.0,2.0,89,0.00,,OVC070,0.00,VWS V13.01,2013-03-26 10:45:00,
2013-03-26 06:50:00,33.3,30.4,29.83,SSW,196,0.0,2.0,89,0.00,,OVC070,0.00,VWS V13.01,2013-03-26 10:50:00,
2013-03-26 06:55:00,33.3,30.4,29.83,SSW,194,2.0,3.0,89,0.00,,OVC070,0.00,VWS V13.01,2013-03-26 10:55:00,
2013-03-26 07:00:00,33.3,30.4,29.83,SW,224,0.0,0.0,89,0.00,,OVC070,0.00,VWS V13.01,2013-03-26 11:00:00,
2013-03-26 07:05:00,33.3,30.4,29.84,SW,224,0.0,0.0,89,0.00,,OVC080,0.00,VWS V13.01,2013-03-26 11:05:00,
2013-03-26 07:10:00,33.3,30.4,29.84,SW,224,0.0,2.0,89,0.00,,OVC080,0.00,VWS V13.01,2013-03-26 11:10:00,
2013-03-26 07:15:00,33.3,30.4,29.84,SW,224,0.0,2.0,89,0.00,,OVC080,0.00,VWS V13.01,2013-03-26 11:15:00,
2013-03-26 07:20:00,33.3,30.7,29.84,SW,224,0.0,3.0,90,0.00,,OVC080,0.00,VWS V13.01,2013-03-26 11:20:00,
2013-03-26 07:25:00,33.3,30.7,29.85,SW,224,0.0,3.0,90,0.00,,OVC080,0.00,VWS V13.01,2013-03-26 11:25:00,
2013-03-26 07:30:00,33.3,30.7,29.85,SW,224,1.0,2.0,90,0.00,,OVC080,0.00,VWS V13.01,2013-03-26 11:30:00,
2013-03-26 07:35:00,33.3,30.7,29.85,SW,224,0.0,2.0,90,0.00,,OVC080,0.00,VWS V13.01,2013-03-26 11:35:00,
2013-03-26 07:40:00,33.3,30.7,29.85,SW,224,0.0,2.0,90,0.00,,OVC080,0.00,VWS V13.01,2013-03-26 11:40:00,
2013-03-26 07:45:00,33.3,30.7,29.85,SW,224,1.0,2.0,90,0.00,,OVC080,0.00,VWS V13.01,2013-03-26 11:45:00,
2013-03-26 07:50:00,33.3,30.7,29.86,SW,224,0.0,2.0,90,0.00,,OVC080,0.00,VWS V13.01,2013-03-26 11:50:00,
2013-03-26 07:55:00,33.3,30.7,29.86,SW,224,0.0,2.0,90,0.00,,OVC080,0.00,VWS V13.01,2013-03-26 11:55:00,
2013-03-26 08:00:00,33.3,30.7,29.86,SW,224,0.0,0.0,90,0.00,,OVC080,0.00,VWS V13.01,2013-03-26 12:00:00,
2013-03-26 08:05:00,33.4,30.8,29.86,SW,224,0.0,2.0,90,0.00,,OVC075,0.00,VWS V13.01,2013-03-26 12:05:00,
2013-03-26 08:10:00,33.5,30.9,29.86,SW,224,0.0,2.0,90,0.00,,OVC075,0.00,VWS V13.01,2013-03-26 12:10:00,
2013-03-26 08:15:00,33.5,31.2,29.86,SW,224,0.0,2.0,91,0.00,,OVC075,0.00,VWS V13.01,2013-03-26 12:15:00,
2013-03-26 08:20:00,33.6,31.3,29.86,SW,224,0.0,2.0,91,0.00,,OVC075,0.00,VWS V13.01,2013-03-26 12:20:00,
2013-03-26 08:25:00,33.7,31.4,29.86,SW,224,0.0,3.0,91,0.00,,OVC075,0.00,VWS V13.01,2013-03-26 12:25:00,
2013-03-26 08:30:00,33.7,31.4,29.86,SW,224,0.0,0.0,91,0.00,,OVC075,0.00,VWS V13.01,2013-03-26 12:30:00,
2013-03-26 08:35:00,33.8,31.5,29.87,SW,224,0.0,0.0,91,0.00,,OVC075,0.00,VWS V13.01,2013-03-26 12:35:00,
2013-03-26 08:40:00,33.9,31.6,29.87,SW,224,0.0,2.0,91,0.00,,OVC075,0.00,VWS V13.01,2013-03-26 12:40:00,
2013-03-26 08:45:00,34.0,31.4,29.87,SW,224,0.0,2.0,90,0.00,,OVC075,0.00,VWS V13.01,2013-03-26 12:45:00,
2013-03-26 08:50:00,34.2,31.6,29.88,SW,224,0.0,2.0,90,0.00,,OVC075,0.00,VWS V13.01,2013-03-26 12:50:00,
2013-03-26 08:55:00,34.3,32.0,29.88,West,281,5.0,5.0,91,0.00,,OVC075,0.00,VWS V13.01,2013-03-26 12:55:00,
2013-03-26 09:00:00,34.4,31.8,29.88,SW,220,0.0,2.0,90,0.00,,OVC075,0.00,VWS V13.01,2013-03-26 13:00:00,
2013-03-26 09:05:00,34.4,31.8,29.88,SW,220,0.0,2.0,90,0.00,,OVC080,0.00,VWS V13.01,2013-03-26 13:05:00,
2013-03-26 09:10:00,34.5,31.9,29.88,SW,220,0.0,2.0,90,0.00,,OVC080,0.00,VWS V13.01,2013-03-26 13:10:00,
2013-03-26 09:16:00,34.7,32.1,29.88,SSW,199,0.0,3.0,90,0.00,,OVC080,0.00,VWS V13.01,2013-03-26 13:16:00,
2013-03-26 09:21:00,34.8,32.2,29.88,SSW,199,0.0,3.0,90,0.00,,OVC080,0.00,VWS V13.01,2013-03-26 13:21:00,
2013-03-26 09:26:00,34.9,32.3,29.88,SSW,199,0.0,3.0,90,0.00,,OVC080,0.00,VWS V13.01,2013-03-26 13:26:00,
2013-03-26 09:31:00,35.0,32.4,29.88,SW,223,2.0,3.0,90,0.00,,OVC080,0.00,VWS V13.01,2013-03-26 13:31:00,
2013-03-26 09:36:00,35.1,32.5,29.88,SSW,208,0.0,5.0,90,0.00,,OVC080,0.00,VWS V13.01,2013-03-26 13:36:00,
2013-03-26 09:41:00,35.2,32.3,29.88,SW,233,1.0,5.0,89,0.00,,OVC080,0.00,VWS V13.01,2013-03-26 13:41:00,
2013-03-26 09:46:00,35.4,32.5,29.88,South,190,3.0,5.0,89,0.00,,OVC080,0.00,VWS V13.01,2013-03-26 13:46:00,
2013-03-26 09:51:00,35.4,32.5,29.88,SW,225,2.0,6.0,89,0.00,,OVC080,0.00,VWS V13.01,2013-03-26 13:51:00,
2013-03-26 09:56:00,35.6,32.7,29.89,SW,228,0.0,6.0,89,0.00,,OVC080,0.00,VWS V13.01,2013-03-26 13:56:00,
2013-03-26 10:01:00,36.0,33.1,29.89,SW,228,1.0,3.0,89,0.00,,OVC080,0.00,VWS V13.01,2013-03-26 14:01:00,
2013-03-26 10:06:00,36.2,33.3,29.89,West,279,0.0,3.0,89,0.00,,OVC085,0.00,VWS V13.01,2013-03-26 14:06:00,
2013-03-26 10:11:00,36.3,33.1,29.90,WNW,293,3.0,5.0,88,0.00,,OVC085,0.00,VWS V13.01,2013-03-26 14:11:00,
2013-03-26 10:16:00,36.3,33.1,29.90,WNW,300,2.0,5.0,88,0.00,,OVC085,0.00,VWS V13.01,2013-03-26 14:16:00,
2013-03-26 10:21:00,36.4,33.2,29.90,West,273,0.0,5.0,88,0.00,,OVC085,0.00,VWS V13.01,2013-03-26 14:21:00,
2013-03-26 10:26:00,36.5,33.0,29.90,West,275,0.0,5.0,87,0.00,,OVC085,0.00,VWS V13.01,2013-03-26 14:26:00,
2013-03-26 10:31:00,36.5,33.0,29.90,WSW,258,1.0,7.0,87,0.00,,OVC085,0.00,VWS V13.01,2013-03-26 14:31:00,
2013-03-26 10:36:00,36.7,33.2,29.90,SSW,194,1.0,7.0,87,0.00,,OVC085,0.00,VWS V13.01,2013-03-26 14:36:00,
2013-03-26 10:42:00,36.8,33.3,29.90,SW,218,2.0,7.0,87,0.00,,OVC085,0.00,VWS V13.01,2013-03-26 14:42:00,
2013-03-26 10:47:00,36.8,33.3,29.91,SW,235,1.0,7.0,87,0.00,,OVC085,0.00,VWS V13.01,2013-03-26 14:47:00,
2013-03-26 10:52:00,36.8,33.3,29.91,West,275,3.0,7.0,87,0.00,,OVC085,0.00,VWS V13.01,2013-03-26 14:52:00,
2013-03-26 10:57:00,36.7,33.2,29.91,West,263,1.0,7.0,87,0.00,,OVC085,0.00,VWS V13.01,2013-03-26 14:57:00,
2013-03-26 11:02:00,36.7,33.2,29.92,WSW,240,0.0,3.0,87,0.00,,OVC095,0.00,VWS V13.01,2013-03-26 15:02:00,
2013-03-26 11:07:00,36.8,33.3,29.92,West,277,2.0,3.0,87,0.00,,OVC095,0.00,VWS V13.01,2013-03-26 15:07:00,
2013-03-26 11:12:00,36.7,33.2,29.92,West,278,0.0,5.0,87,0.00,,OVC095,0.00,VWS V13.01,2013-03-26 15:12:00,
2013-03-26 11:17:00,36.7,33.2,29.92,WNW,283,0.0,6.0,87,0.00,,OVC095,0.00,VWS V13.01,2013-03-26 15:17:00,
2013-03-26 11:22:00,36.8,33.6,29.92,SSW,213,1.0,6.0,88,0.00,,OVC095,0.00,VWS V13.01,2013-03-26 15:22:00,
2013-03-26 11:27:00,36.9,33.7,29.92,SW,231,2.0,7.0,88,0.00,,OVC095,0.00,VWS V13.01,2013-03-26 15:27:00,
2013-03-26 11:32:00,36.9,33.4,29.92,West,279,4.0,5.0,87,0.00,,OVC095,0.00,VWS V13.01,2013-03-26 15:32:00,
2013-03-26 11:37:00,36.9,33.4,29.92,West,272,2.0,6.0,87,0.00,,OVC095,0.00,VWS V13.01,2013-03-26 15:37:00,
2013-03-26 11:43:00,37.1,33.6,29.92,WNW,282,1.0,6.0,87,0.00,,OVC095,0.00,VWS V13.01,2013-03-26 15:43:00,
2013-03-26 11:48:00,37.3,33.8,29.92,West,259,0.0,6.0,87,0.00,,OVC095,0.00,VWS V13.01,2013-03-26 15:48:00,
2013-03-26 11:53:00,37.5,33.7,29.92,WSW,240,3.0,6.0,86,0.00,,OVC095,0.00,VWS V13.01,2013-03-26 15:53:00,
2013-03-26 11:58:00,37.5,33.7,29.92,West,277,4.0,6.0,86,0.00,,OVC095,0.00,VWS V13.01,2013-03-26 15:58:00,
2013-03-26 12:03:00,37.4,33.3,29.92,SSW,196,2.0,5.0,85,0.00,,OVC095,0.00,VWS V13.01,2013-03-26 16:03:00,
2013-03-26 12:08:00,37.6,33.5,29.92,West,276,0.0,6.0,85,0.00,,OVC095,0.00,VWS V13.01,2013-03-26 16:08:00,
2013-03-26 12:13:00,37.5,33.4,29.92,SW,227,2.0,6.0,85,0.00,,OVC095,0.00,VWS V13.01,2013-03-26 16:13:00,
2013-03-26 12:18:00,37.7,33.6,29.92,WSW,249,1.0,7.0,85,0.00,,OVC095,0.00,VWS V13.01,2013-03-26 16:18:00,
2013-03-26 12:23:00,37.8,33.7,29.92,South,182,3.0,7.0,85,0.00,,OVC095,0.00,VWS V13.01,2013-03-26 16:23:00,
2013-03-26 12:28:00,38.0,33.9,29.92,WSW,238,4.0,7.0,85,0.00,,OVC095,0.00,VWS V13.01,2013-03-26 16:28:00,
2013-03-26 12:33:00,38.2,33.8,29.92,West,275,1.0,6.0,84,0.00,,OVC095,0.00,VWS V13.01,2013-03-26 16:33:00,
2013-03-26 12:38:00,38.3,33.6,29.92,West,263,3.0,6.0,83,0.00,,OVC095,0.00,VWS V13.01,2013-03-26 16:38:00,
2013-03-26 12:43:00,38.2,33.5,29.92,SW,215,2.0,7.0,83,0.00,,OVC095,0.00,VWS V13.01,2013-03-26 16:43:00,
2013-03-26 12:48:00,38.2,33.8,29.92,WSW,238,0.0,7.0,84,0.00,,OVC095,0.00,VWS V13.01,2013-03-26 16:48:00,
2013-03-26 12:53:00,38.7,34.0,29.92,West,259,1.0,7.0,83,0.00,,OVC095,0.00,VWS V13.01,2013-03-26 16:53:00,
2013-03-26 12:58:00,38.8,34.1,29.92,WSW,250,4.0,7.0,83,0.00,,OVC095,0.00,VWS V13.01,2013-03-26 16:58:00,
2013-03-26 13:03:00,39.0,34.3,29.92,South,180,0.0,9.0,83,0.00,,OVC100,0.00,VWS V13.01,2013-03-26 17:03:00,
2013-03-26 13:08:00,39.1,34.1,29.92,West,279,5.0,11.0,82,0.00,,OVC100,0.00,VWS V13.01,2013-03-26 17:08:00,
2013-03-26 13:13:00,38.7,33.7,29.93,SW,215,2.0,11.0,82,0.00,,OVC100,0.00,VWS V13.01,2013-03-26 17:13:00,
2013-03-26 13:18:00,38.3,33.3,29.93,West,261,5.0,11.0,82,0.00,,OVC100,0.00,VWS V13.01,2013-03-26 17:18:00,
2013-03-26 13:23:00,38.6,34.2,29.93,South,190,3.0,11.0,84,0.00,,OVC100,0.00,VWS V13.01,2013-03-26 17:23:00,
2013-03-26 13:28:00,38.8,34.1,29.93,West,261,3.0,11.0,83,0.00,,OVC100,0.00,VWS V13.01,2013-03-26 17:28:00,
2013-03-26 13:33:00,39.1,34.4,29.93,NW,306,0.0,6.0,83,0.00,,OVC100,0.00,VWS V13.01,2013-03-26 17:33:00,
2013-03-26 13:38:00,39.1,34.4,29.93,WSW,253,2.0,7.0,83,0.00,,OVC100,0.00,VWS V13.01,2013-03-26 17:38:00,
2013-03-26 13:43:00,39.0,34.3,29.93,SW,228,1.0,10.0,83,0.00,,OVC100,0.00,VWS V13.01,2013-03-26 17:43:00,
2013-03-26 13:48:00,39.1,34.4,29.93,West,271,4.0,10.0,83,0.00,,OVC100,0.00,VWS V13.01,2013-03-26 17:48:00,
2013-03-26 13:53:00,39.0,34.0,29.93,WSW,240,0.0,10.0,82,0.00,,OVC100,0.00,VWS V13.01,2013-03-26 17:53:00,
2013-03-26 13:58:00,39.1,34.1,29.93,WSW,240,3.0,10.0,82,0.00,,OVC100,0.00,VWS V13.01,2013-03-26 17:58:00,
2013-03-26 14:03:00,39.1,34.4,29.93,NW,307,0.0,9.0,83,0.00,,OVC100,0.00,VWS V13.01,2013-03-26 18:03:00,
2013-03-26 14:08:00,39.3,34.6,29.93,WSW,250,1.0,9.0,83,0.00,,OVC100,0.00,VWS V13.01,2013-03-26 18:08:00,
2013-03-26 14:13:00,39.5,34.5,29.93,WSW,249,3.0,9.0,82,0.00,,OVC100,0.00,VWS V13.01,2013-03-26 18:13:00,
2013-03-26 14:19:00,39.4,34.4,29.93,WNW,299,2.0,11.0,82,0.00,,OVC100,0.00,VWS V13.01,2013-03-26 18:19:00,
2013-03-26 14:24:00,39.5,34.5,29.93,NNW,348,2.0,11.0,82,0.00,,OVC100,0.00,VWS V13.01,2013-03-26 18:24:00,
2013-03-26 14:29:00,39.3,34.3,29.93,SSW,194,1.0,11.0,82,0.00,,OVC100,0.00,VWS V13.01,2013-03-26 18:29:00,
2013-03-26 14:34:00,39.3,34.3,29.93,WNW,282,4.0,10.0,82,0.00,,OVC100,0.00,VWS V13.01,2013-03-26 18:34:00,
2013-03-26 14:39:00,39.2,34.2,29.93,WNW,286,2.0,10.0,82,0.00,,OVC100,0.00,VWS V13.01,2013-03-26 18:39:00,
2013-03-26 14:44:00,39.2,34.2,29.93,SW,232,3.0,10.0,82,0.00,,OVC100,0.00,VWS V13.01,2013-03-26 18:44:00,
2013-03-26 14:49:00,39.5,34.5,29.93,West,267,4.0,10.0,82,0.00,,OVC100,0.00,VWS V13.01,2013-03-26 18:49:00,
2013-03-26 14:54:00,39.4,34.4,29.93,South,191,5.0,11.0,82,0.00,,OVC100,0.00,VWS V13.01,2013-03-26 18:54:00,
2013-03-26 14:59:00,39.0,34.3,29.93,WSW,254,3.0,11.0,83,0.00,,OVC100,0.00,VWS V13.01,2013-03-26 18:59:00,
2013-03-26 15:04:00,39.1,34.4,29.93,WSW,243,4.0,6.0,83,0.00,,OVC100,0.00,VWS V13.01,2013-03-26 19:04:00,
2013-03-26 15:09:00,39.1,34.4,29.93,WSW,240,2.0,7.0,83,0.00,,OVC100,0.00,VWS V13.01,2013-03-26 19:09:00,
2013-03-26 15:14:00,39.2,34.5,29.93,North,360,2.0,13.0,83,0.00,,OVC100,0.00,VWS V13.01,2013-03-26 19:14:00,
2013-03-26 15:19:00,39.0,34.3,29.93,SSE,160,2.0,15.0,83,0.00,,OVC100,0.00,VWS V13.01,2013-03-26 19:19:00,
2013-03-26 15:24:00,39.0,34.3,29.93,WSW,257,3.0,15.0,83,0.00,,OVC100,0.00,VWS V13.01,2013-03-26 19:24:00,
2013-03-26 15:29:00,39.2,34.8,29.93,WSW,241,1.0,15.0,84,0.00,,OVC100,0.00,VWS V13.01,2013-03-26 19:29:00,
2013-03-26 15:34:00,39.2,34.5,29.93,SW,232,3.0,9.0,83,0.00,,OVC100,0.00,VWS V13.01,2013-03-26 19:34:00,
2013-03-26 15:39:00,39.1,34.4,29.93,West,279,3.0,10.0,83,0.00,,OVC100,0.00,VWS V13.01,2013-03-26 19:39:00,
2013-03-26 15:44:00,39.1,34.4,29.93,West,276,1.0,10.0,83,0.00,,OVC100,0.00,VWS V13.01,2013-03-26 19:44:00,
2013-03-26 15:49:00,38.9,34.2,29.93,WNW,290,4.0,10.0,83,0.00,,OVC100,0.00,VWS V13.01,2013-03-26 19:49:00,
2013-03-26 15:54:00,38.8,34.1,29.94,West,267,3.0,10.0,83,0.00,,OVC100,0.00,VWS V13.01,2013-03-26 19:54:00,
2013-03-26 15:59:00,38.6,33.9,29.94,South,190,5.0,13.0,83,0.00,,OVC100,0.00,VWS V13.01,2013-03-26 19:59:00,
2013-03-26 16:04:00,38.3,33.9,29.94,West,263,4.0,10.0,84,0.00,,OVC100,0.00,VWS V13.01,2013-03-26 20:04:00,
2013-03-26 16:09:00,38.5,34.4,29.94,SSW,196,2.0,10.0,85,0.00,,OVC100,0.00,VWS V13.01,2013-03-26 20:09:00,
2013-03-26 16:14:00,38.5,34.1,29.94,WSW,252,4.0,11.0,84,0.00,,OVC100,0.00,VWS V13.01,2013-03-26 20:14:00,
2013-03-26 16:19:00,38.6,34.2,29.94,West,273,5.0,11.0,84,0.00,,OVC100,0.00,VWS V13.01,2013-03-26 20:19:00,
2013-03-26 16:24:00,38.7,34.3,29.94,West,279,3.0,11.0,84,0.00,,OVC100,0.00,VWS V13.01,2013-03-26 20:24:00,
2013-03-26 16:29:00,39.1,34.7,29.94,SW,222,2.0,11.0,84,0.00,,OVC100,0.00,VWS V13.01,2013-03-26 20:29:00,
2013-03-26 16:34:00,39.1,34.4,29.94,SW,224,1.0,7.0,83,0.00,,OVC100,0.00,VWS V13.01,2013-03-26 20:34:00,
2013-03-26 16:39:00,39.1,34.4,29.94,South,174,0.0,9.0,83,0.00,,OVC100,0.00,VWS V13.01,2013-03-26 20:39:00,
2013-03-26 16:44:00,39.2,34.5,29.94,West,263,3.0,9.0,83,0.00,,OVC100,0.00,VWS V13.01,2013-03-26 20:44:00,
2013-03-26 16:49:00,39.0,34.3,29.94,SW,236,2.0,10.0,83,0.00,,OVC100,0.00,VWS V13.01,2013-03-26 20:49:00,
2013-03-26 16:54:00,39.0,34.3,29.94,South,182,4.0,10.0,83,0.00,,OVC100,0.00,VWS V13.01,2013-03-26 20:54:00,
2013-03-26 16:59:00,39.0,34.3,29.94,WSW,244,1.0,10.0,83,0.00,,OVC100,0.00,VWS V13.01,2013-03-26 20:59:00,
2013-03-26 17:04:00,38.8,34.1,29.94,WSW,252,0.0,6.0,83,0.00,,OVC100,0.00,VWS V13.01,2013-03-26 21:04:00,
2013-03-26 17:10:00,38.8,34.1,29.94,West,262,1.0,7.0,83,0.00,,OVC100,0.00,VWS V13.01,2013-03-26 21:10:00,
2013-03-26 17:15:00,38.7,33.7,29.94,WSW,254,0.0,7.0,82,0.00,,OVC100,0.00,VWS V13.01,2013-03-26 21:15:00,
2013-03-26 17:20:00,38.5,33.8,29.94,SSW,203,2.0,7.0,83,0.00,,OVC100,0.00,VWS V13.01,2013-03-26 21:20:00,
2013-03-26 17:25:00,38.5,33.8,29.94,West,265,0.0,7.0,83,0.00,,OVC100,0.00,VWS V13.01,2013-03-26 21:25:00,
2013-03-26 17:30:00,38.5,33.8,29.94,WNW,292,0.0,3.0,83,0.00,,OVC100,0.00,VWS V13.01,2013-03-26 21:30:00,
2013-03-26 17:35:00,38.5,33.8,29.94,WSW,245,1.0,7.0,83,0.00,,OVC100,0.00,VWS V13.01,2013-03-26 21:35:00,
2013-03-26 17:40:00,38.3,33.6,29.94,SW,230,4.0,10.0,83,0.00,,OVC100,0.00,VWS V13.01,2013-03-26 21:40:00,
2013-03-26 17:45:00,38.2,33.5,29.94,West,263,3.0,10.0,83,0.00,,OVC100,0.00,VWS V13.01,2013-03-26 21:45:00,
2013-03-26 17:50:00,38.1,33.4,29.94,SW,223,4.0,10.0,83,0.00,,OVC100,0.00,VWS V13.01,2013-03-26 21:50:00,
2013-03-26 17:55:00,38.2,33.5,29.95,WSW,250,2.0,10.0,83,0.00,,OVC100,0.00,VWS V13.01,2013-03-26 21:55:00,
2013-03-26 18:00:00,38.0,33.6,29.95,WSW,253,4.0,4.0,84,0.00,,OVC100,0.00,VWS V13.01,2013-03-26 22:00:00,
2013-03-26 18:05:00,37.9,33.5,29.95,WSW,254,2.0,9.0,84,0.00,,OVC065,0.00,VWS V13.01,2013-03-26 22:05:00,
2013-03-26 18:10:00,37.8,33.4,29.95,WSW,250,2.0,9.0,84,0.00,,OVC065,0.00,VWS V13.01,2013-03-26 22:10:00,
2013-03-26 18:15:00,37.7,33.3,29.95,WSW,250,1.0,10.0,84,0.00,,OVC065,0.00,VWS V13.01,2013-03-26 22:15:00,
2013-03-26 18:20:00,37.6,33.5,29.95,West,277,1.0,10.0,85,0.00,,OVC065,0.00,VWS V13.01,2013-03-26 22:20:00,
2013-03-26 18:25:00,37.5,33.1,29.95,WSW,252,1.0,10.0,84,0.00,,OVC065,0.00,VWS V13.01,2013-03-26 22:25:00,
2013-03-26 18:30:00,37.5,33.4,29.96,SW,220,2.0,3.0,85,0.00,,OVC065,0.00,VWS V13.01,2013-03-26 22:30:00,
2013-03-26 18:35:00,37.5,33.4,29.96,West,271,0.0,6.0,85,0.00,,OVC065,0.00,VWS V13.01,2013-03-26 22:35:00,
2013-03-26 18:40:00,37.5,33.4,29.96,South,183,0.0,6.0,85,0.00,,OVC065,0.00,VWS V13.01,2013-03-26 22:40:00,
2013-03-26 18:45:00,37.4,33.3,29.96,West,272,2.0,6.0,85,0.00,,OVC065,0.00,VWS V13.01,2013-03-26 22:45:00,
2013-03-26 18:50:00,37.4,33.3,29.96,South,187,10.0,10.0,85,0.00,,OVC065,0.00,VWS V13.01,2013-03-26 22:50:00,
2013-03-26 18:55:00,37.4,33.0,29.97,West,267,3.0,10.0,84,0.00,,OVC065,0.00,VWS V13.01,2013-03-26 22:55:00,
2013-03-26 19:00:00,37.4,33.0,29.97,South,188,2.0,2.0,84,0.00,,OVC065,0.00,VWS V13.01,2013-03-26 23:00:00,
2013-03-26 19:05:00,37.4,33.0,29.97,WSW,254,1.0,4.0,84,0.00,,OVC075,0.00,VWS V13.01,2013-03-26 23:05:00,
2013-03-26 19:10:00,37.4,33.3,29.97,WSW,257,0.0,5.0,85,0.00,,OVC075,0.00,VWS V13.01,2013-03-26 23:10:00,
2013-03-26 19:15:00,37.4,33.0,29.97,South,186,1.0,7.0,84,0.00,,OVC075,0.00,VWS V13.01,2013-03-26 23:15:00,
2013-03-26 19:20:00,37.3,32.9,29.97,SSW,196,6.0,9.0,84,0.00,,OVC075,0.00,VWS V13.01,2013-03-26 23:20:00,
2013-03-26 19:25:00,37.3,32.9,29.97,SW,230,2.0,9.0,84,0.00,,OVC075,0.00,VWS V13.01,2013-03-26 23:25:00,
2013-03-26 19:30:00,37.3,32.9,29.97,SW,225,0.0,2.0,84,0.00,,OVC075,0.00,VWS V13.01,2013-03-26 23:30:00,
2013-03-26 19:35:00,37.2,33.1,29.97,SSW,205,1.0,7.0,85,0.00,,OVC075,0.00,VWS V13.01,2013-03-26 23:35:00,
2013-03-26 19:40:00,37.1,33.0,29.98,South,191,2.0,7.0,85,0.00,,OVC075,0.00,VWS V13.01,2013-03-26 23:40:00,
2013-03-26 19:45:00,37.0,32.9,29.98,West,268,1.0,7.0,85,0.00,,OVC075,0.00,VWS V13.01,2013-03-26 23:45:00,
2013-03-26 19:50:00,36.9,32.8,29.98,West,272,2.0,7.0,85,0.00,,OVC075,0.00,VWS V13.01,2013-03-26 23:50:00,
2013-03-26 19:55:00,36.7,32.9,29.98,WSW,247,1.0,10.0,86,0.00,,OVC075,0.00,VWS V13.01,2013-03-26 23:55:00,
2013-03-26 20:00:00,36.5,32.7,29.98,SW,217,3.0,3.0,86,0.00,,OVC075,0.00,VWS V13.01,2013-03-27 00:00:00,
2013-03-26 20:05:00,36.4,32.6,29.98,SSE,163,2.0,8.0,86,0.00,,OVC065,0.00,VWS V13.01,2013-03-27 00:05:00,
2013-03-26 20:10:00,36.2,32.4,29.98,SW,217,0.0,8.0,86,0.00,,OVC065,0.00,VWS V13.01,2013-03-27 00:10:00,
2013-03-26 20:15:00,36.1,32.6,29.98,SSW,198,0.0,8.0,87,0.00,,OVC065,0.00,VWS V13.01,2013-03-27 00:15:00,
2013-03-26 20:20:00,36.0,32.5,29.99,WSW,250,0.0,8.0,87,0.00,,OVC065,0.00,VWS V13.01,2013-03-27 00:20:00,
2013-03-26 20:25:00,35.9,32.4,29.99,WSW,252,3.0,8.0,87,0.00,,OVC065,0.00,VWS V13.01,2013-03-27 00:25:00,
2013-03-26 20:30:00,35.9,32.4,29.99,South,187,0.0,3.0,87,0.00,,OVC065,0.00,VWS V13.01,2013-03-27 00:30:00,
2013-03-26 20:35:00,35.9,32.4,29.99,South,188,3.0,7.0,87,0.00,,OVC065,0.00,VWS V13.01,2013-03-27 00:35:00,
2013-03-26 20:40:00,35.8,32.3,30.00,WSW,248,0.0,8.0,87,0.00,,OVC065,0.00,VWS V13.01,2013-03-27 00:40:00,
2013-03-26 20:45:00,35.8,32.3,30.00,West,271,1.0,8.0,87,0.00,,OVC065,0.00,VWS V13.01,2013-03-27 00:45:00,
2013-03-26 20:50:00,35.7,32.2,30.00,WSW,244,0.0,8.0,87,0.00,,OVC065,0.00,VWS V13.01,2013-03-27 00:50:00,
2013-03-26 20:56:00,35.7,32.2,30.00,SW,225,1.0,8.0,87,0.00,,OVC065,0.00,VWS V13.01,2013-03-27 00:56:00,
2013-03-26 21:00:00,35.7,32.2,30.00,West,276,2.0,4.0,87,0.00,,OVC065,0.00,VWS V13.01,2013-03-27 01:00:00,
2013-03-26 21:06:00,35.6,32.1,30.00,SSW,211,1.0,6.0,87,0.00,,OVC100,0.00,VWS V13.01,2013-03-27 01:06:00,
2013-03-26 21:11:00,35.5,32.0,30.00,SW,215,3.0,6.0,87,0.00,,OVC100,0.00,VWS V13.01,2013-03-27 01:11:00,
2013-03-26 21:16:00,35.4,32.2,30.00,SW,223,2.0,6.0,88,0.00,,OVC100,0.00,VWS V13.01,2013-03-27 01:16:00,
2013-03-26 21:21:00,35.3,32.1,30.01,SSW,199,1.0,6.0,88,0.00,,OVC100,0.00,VWS V13.01,2013-03-27 01:21:00,
2013-03-26 21:26:00,35.2,32.3,30.01,WSW,238,0.0,6.0,89,0.00,,OVC100,0.00,VWS V13.01,2013-03-27 01:26:00,
2013-03-26 21:31:00,35.2,32.3,30.01,WSW,242,3.0,5.0,89,0.00,,OVC100,0.00,VWS V13.01,2013-03-27 01:31:00,
2013-03-26 21:36:00,35.1,32.2,30.01,SSW,202,3.0,5.0,89,0.00,,OVC100,0.00,VWS V13.01,2013-03-27 01:36:00,
2013-03-26 21:41:00,35.1,32.2,30.01,SW,234,0.0,7.0,89,0.00,,OVC100,0.00,VWS V13.01,2013-03-27 01:41:00,
2013-03-26 21:46:00,35.1,32.2,30.02,SSW,203,3.0,7.0,89,0.00,,OVC100,0.00,VWS V13.01,2013-03-27 01:46:00,
2013-03-26 21:51:00,35.2,32.3,30.02,WNW,286,3.0,7.0,89,0.00,,OVC100,0.00,VWS V13.01,2013-03-27 01:51:00,
2013-03-26 21:56:00,35.2,32.3,30.02,WSW,240,3.0,7.0,89,0.00,,OVC100,0.00,VWS V13.01,2013-03-27 01:56:00,
2013-03-26 22:01:00,35.2,32.6,30.02,WSW,239,0.0,3.0,90,0.00,,OVC100,0.00,VWS V13.01,2013-03-27 02:01:00,
2013-03-26 22:06:00,35.1,32.5,30.02,WSW,254,0.0,5.0,90,0.00,,OVC055,0.00,VWS V13.01,2013-03-27 02:06:00,
2013-03-26 22:12:00,34.9,32.3,30.02,West,264,0.0,5.0,90,0.00,,OVC055,0.00,VWS V13.01,2013-03-27 02:12:00,
2013-03-26 22:17:00,34.8,32.2,30.02,WSW,250,0.0,5.0,90,0.00,,OVC055,0.00,VWS V13.01,2013-03-27 02:17:00,
2013-03-26 22:22:00,34.6,32.0,30.02,WSW,248,1.0,7.0,90,0.00,,OVC080,0.00,VWS V13.01,2013-03-27 02:22:00,
2013-03-26 22:27:00,34.5,32.2,30.02,SSW,197,1.0,7.0,91,0.00,,OVC080,0.00,VWS V13.01,2013-03-27 02:27:00,
2013-03-26 22:32:00,34.5,32.2,30.02,SW,228,0.0,3.0,91,0.00,,OVC080,0.00,VWS V13.01,2013-03-27 02:32:00,
2013-03-26 22:37:00,34.4,32.0,30.02,SW,225,2.0,5.0,91,0.00,,OVC080,0.00,VWS V13.01,2013-03-27 02:37:00,
2013-03-26 22:42:00,34.4,32.0,30.02,West,262,1.0,6.0,91,0.00,,OVC080,0.00,VWS V13.01,2013-03-27 02:42:00,
2013-03-26 22:47:00,34.4,32.0,30.02,West,271,2.0,7.0,91,0.00,,OVC080,0.00,VWS V13.01,2013-03-27 02:47:00,
2013-03-26 22:52:00,34.4,32.0,30.02,West,278,1.0,7.0,91,0.00,,OVC080,0.00,VWS V13.01,2013-03-27 02:52:00,
2013-03-26 22:57:00,34.4,32.0,30.02,WSW,246,0.0,7.0,91,0.00,,OVC080,0.00,VWS V13.01,2013-03-27 02:57:00,
2013-03-26 23:02:00,34.5,32.2,30.02,West,273,2.0,5.0,91,0.00,,OVC110,0.00,VWS V13.01,2013-03-27 03:02:00,
2013-03-26 23:07:00,34.6,32.2,30.02,SSW,201,1.0,5.0,91,0.00,,OVC110,0.00,VWS V13.01,2013-03-27 03:07:00,
2013-03-26 23:12:00,34.6,32.2,30.02,SSW,198,6.0,6.0,91,0.00,,OVC110,0.00,VWS V13.01,2013-03-27 03:12:00,
2013-03-26 23:17:00,34.6,32.2,30.02,WSW,248,3.0,6.0,91,0.00,,OVC110,0.00,VWS V13.01,2013-03-27 03:17:00,
2013-03-26 23:22:00,34.6,32.2,30.02,West,274,1.0,6.0,91,0.00,,OVC110,0.00,VWS V13.01,2013-03-27 03:22:00,
2013-03-26 23:27:00,34.4,32.3,30.02,SSW,202,2.0,6.0,92,0.00,,OVC110,0.00,VWS V13.01,2013-03-27 03:27:00,
2013-03-26 23:32:00,34.4,32.3,30.02,WSW,258,2.0,5.0,92,0.00,,OVC110,0.00,VWS V13.01,2013-03-27 03:32:00,
2013-03-26 23:37:00,34.4,32.3,30.02,WSW,241,0.0,5.0,92,0.00,,OVC110,0.00,VWS V13.01,2013-03-27 03:37:00,
2013-03-26 23:42:00,34.4,32.3,30.02,SSW,198,2.0,5.0,92,0.00,,OVC110,0.00,VWS V13.01,2013-03-27 03:42:00,
2013-03-26 23:47:00,34.4,32.3,30.02,SSW,211,0.0,5.0,92,0.00,,OVC110,0.00,VWS V13.01,2013-03-27 03:47:00,
2013-03-26 23:52:00,34.4,32.0,30.02,SW,225,0.0,5.0,91,0.00,,OVC110,0.00,VWS V13.01,2013-03-27 03:52:00,
2013-03-26 23:57:00,34.4,32.0,30.02,SSW,209,2.0,5.0,91,0.00,,OVC110,0.00,VWS V13.01,2013-03-27 03:57:00,